Torna al catalogo

STARLINK-37746

AttivoComunicazioniSSO
NORAD 69230·PAYLOAD·🇺🇸 United States

Lanciato May 26, 2026 da Vandenberg Space Force Base

Loading…

Prossimi Passaggi (prossime 24 ore)

TLE

AggiornatoSource: CelesTrak SupGP

Epoca: Sep 15, 2026, 03:05 UTC

1 69230C 26115V   26258.12895833 -.00064298  00000+0 -19956-2 0  2587
2 69230  97.2832 274.3514 0001538  93.8193 156.6011 15.33476470    10

Traccia STARLINK-37746 in tempo reale con AllMySat

Download on the App Store